| time (UTC) | temp F | wind direction | speed MPH | gust MPH | rain 1hr in | rain 24hr in | rain mn in | humidity % | barometer mb |
| 20260903062414 | 80 | 23 | 1.0 | 2.0 | 0.00 | 0.00 | 0.00 | 77 | 1013.6 |
| 20260903061910 | 80 | 17 | 0.0 | 1.0 | 0.00 | 0.00 | 0.00 | 77 | 1013.7 |
| 20260903061409 | 80 | 77 | 4.0 | 6.0 | 0.00 | 0.00 | 0.00 | 76 | 1013.4 |
| 20260903060905 | 80 | 51 | 3.0 | 5.0 | 0.00 | 0.00 | 0.00 | 76 | 1013.4 |
| 20260903060405 | 80 | 30 | 2.0 | 5.0 | 0.00 | 0.00 | 0.00 | 75 | 1013.7 |
| 20260903055902 | 81 | 31 | 1.0 | 6.0 | 0.00 | 0.00 | 0.00 | 75 | 1013.9 |
| 20260903055401 | 81 | 34 | 3.0 | 8.0 | 0.00 | 0.00 | 0.00 | 75 | 1013.6 |
| 20260903054856 | 81 | 100 | 5.0 | 8.0 | 0.00 | 0.00 | 0.00 | 74 | 1014.0 |
| 20260903054356 | 81 | 41 | 5.0 | 8.0 | 0.00 | 0.00 | 0.00 | 74 | 1013.9 |
| 20260903053853 | 81 | 42 | 3.0 | 8.0 | 0.00 | 0.00 | 0.00 | 74 | 1013.8 |
| 20260903053347 | 81 | 61 | 3.0 | 9.0 | 0.00 | 0.00 | 0.00 | 74 | 1013.8 |
| 20260903052843 | 81 | 80 | 8.0 | 10.0 | 0.00 | 0.00 | 0.00 | 74 | 1013.9 |
| 20260903052338 | 81 | 31 | 3.0 | 7.0 | 0.00 | 0.00 | 0.00 | 73 | 1013.9 |
| 20260903051834 | 81 | 59 | 6.0 | 13.0 | 0.00 | 0.00 | 0.00 | 72 | 1014.1 |
| 20260903051329 | 82 | 86 | 8.0 | 14.0 | 0.00 | 0.00 | 0.00 | 71 | 1014.1 |
| 20260903050825 | 82 | 57 | 6.0 | 7.0 | 0.00 | 0.00 | 0.00 | 71 | 1013.9 |
| 20260903050324 | 82 | 68 | 9.0 | 13.0 | 0.00 | 0.00 | 0.00 | 71 | 1013.9 |
| 20260903045819 | 82 | 124 | 3.0 | 11.0 | 0.00 | 0.00 | 0.00 | 71 | 1013.9 |
| 20260903045315 | 82 | 85 | 9.0 | 14.0 | 0.00 | 0.00 | 0.00 | 70 | 1013.9 |
| 20260903044811 | 82 | 70 | 3.0 | 13.0 | 0.00 | 0.00 | 0.00 | 69 | 1014.0 |
| 20260903044306 | 82 | 39 | 3.0 | 16.0 | 0.00 | 0.00 | 0.00 | 69 | 1013.9 |
| 20260903043803 | 83 | 34 | 4.0 | 13.0 | 0.00 | 0.00 | 0.00 | 69 | 1013.8 |
| 20260903043302 | 83 | 86 | 5.0 | 7.0 | 0.00 | 0.00 | 0.00 | 67 | 1013.7 |
| 20260903042801 | 84 | 84 | 7.0 | 10.0 | 0.00 | 0.00 | 0.00 | 67 | 1013.9 |
| 20260903042257 | 83 | 52 | 4.0 | 8.0 | 0.00 | 0.00 | 0.00 | 67 | 1013.7 |
| 20260903041753 | 84 | 120 | 4.0 | 9.0 | 0.00 | 0.00 | 0.00 | 66 | 1013.9 |
| 20260903041249 | 83 | 72 | 7.0 | 8.0 | 0.00 | 0.00 | 0.00 | 66 | 1013.9 |
| 20260903040748 | 83 | 85 | 9.0 | 11.0 | 0.00 | 0.00 | 0.00 | 66 | 1014.1 |
| 20260903040243 | 84 | 110 | 3.0 | 13.0 | 0.00 | 0.00 | 0.00 | 66 | 1014.2 |
| 20260903035739 | 84 | 64 | 1.0 | 3.0 | 0.00 | 0.00 | 0.00 | 65 | 1013.9 |
| 20260903035234 | 84 | 27 | 3.0 | 13.0 | 0.00 | 0.00 | 0.00 | 65 | 1013.7 |
| 20260903034729 | 84 | 136 | 7.0 | 11.0 | 0.00 | 0.00 | 0.00 | 65 | 1014.2 |
| 20260903034224 | 84 | 71 | 2.0 | 11.0 | 0.00 | 0.00 | 0.00 | 64 | 1013.9 |
| 20260903033719 | 85 | 54 | 6.0 | 15.0 | 0.00 | 0.00 | 0.00 | 64 | 1013.9 |
| 20260903033214 | 85 | 43 | 9.0 | 13.0 | 0.00 | 0.00 | 0.00 | 64 | 1014.1 |
| 20260903032709 | 85 | 28 | 4.0 | 13.0 | 0.00 | 0.00 | 0.00 | 63 | 1013.9 |
| 20260903032205 | 85 | 58 | 5.0 | 10.0 | 0.00 | 0.00 | 0.00 | 63 | 1013.9 |
| 20260903031700 | 86 | 26 | 6.0 | 11.0 | 0.00 | 0.00 | 0.00 | 62 | 1014.0 |
| 20260903031159 | 86 | 84 | 5.0 | 13.0 | 0.00 | 0.00 | 0.00 | 62 | 1014.0 |
| 20260903030656 | 86 | 56 | 4.0 | 7.0 | 0.00 | 0.00 | 0.00 | 61 | 1014.1 |
| 20260903030151 | 86 | 102 | 5.0 | 10.0 | 0.00 | 0.00 | 0.00 | 62 | 1013.9 |
| 20260903025646 | 86 | 55 | 5.0 | 13.0 | 0.00 | 0.00 | 0.00 | 62 | 1013.8 |
| 20260903025142 | 87 | 88 | 3.0 | 8.0 | 0.00 | 0.00 | 0.00 | 61 | 1013.6 |
| 20260903024637 | 87 | 71 | 4.0 | 9.0 | 0.00 | 0.00 | 0.00 | 60 | 1013.8 |
| 20260903024136 | 87 | 83 | 9.0 | 14.0 | 0.00 | 0.00 | 0.00 | 60 | 1013.8 |
| 20260903023632 | 87 | 29 | 2.0 | 16.0 | 0.00 | 0.00 | 0.00 | 60 | 1013.6 |
| 20260903023132 | 87 | 97 | 7.0 | 16.0 | 0.00 | 0.00 | 0.00 | 59 | 1013.9 |
| 20260903022626 | 88 | 128 | 6.0 | 13.0 | 0.00 | 0.00 | 0.00 | 58 | 1013.6 |
| 20260903022125 | 88 | 97 | 9.0 | 13.0 | 0.00 | 0.00 | 0.00 | 58 | 1013.6 |
| 20260903021620 | 88 | 104 | 4.0 | 10.0 | 0.00 | 0.00 | 0.00 | 57 | 1013.5 |
| 20260903021120 | 89 | 143 | 5.0 | 9.0 | 0.00 | 0.00 | 0.00 | 57 | 1013.4 |
| 20260903020616 | 89 | 86 | 7.0 | 13.0 | 0.00 | 0.00 | 0.00 | 56 | 1013.1 |
| 20260903020110 | 89 | 105 | 6.0 | 11.0 | 0.00 | 0.00 | 0.00 | 56 | 1013.3 |
| 20260903015606 | 89 | 96 | 9.0 | 16.0 | 0.00 | 0.00 | 0.00 | 56 | 1013.4 |
| 20260903015101 | 89 | 93 | 5.0 | 8.0 | 0.00 | 0.00 | 0.00 | 55 | 1013.0 |
| 20260903014600 | 90 | 102 | 7.0 | 9.0 | 0.00 | 0.00 | 0.00 | 55 | 1013.1 |
| 20260903014055 | 90 | 152 | 7.0 | 13.0 | 0.00 | 0.00 | 0.00 | 54 | 1012.7 |
| 20260903013555 | 91 | 98 | 7.0 | 10.0 | 0.00 | 0.00 | 0.00 | 52 | 1013.0 |
| 20260903013044 | 91 | 59 | 3.0 | 7.0 | 0.00 | 0.00 | 0.00 | 51 | 1012.8 |
| 20260903012543 | 91 | 147 | 5.0 | 7.0 | 0.00 | 0.00 | 0.00 | 51 | 1013.0 |
| 20260903012042 | 92 | 90 | 6.0 | 9.0 | 0.00 | 0.00 | 0.00 | 50 | 1012.5 |
| 20260903011537 | 92 | 89 | 4.0 | 7.0 | 0.00 | 0.00 | 0.00 | 49 | 1012.7 |
| 20260903011032 | 92 | 53 | 3.0 | 6.0 | 0.00 | 0.00 | 0.00 | 49 | 1012.5 |
| 20260903010527 | 92 | 59 | 3.0 | 10.0 | 0.00 | 0.00 | 0.00 | 48 | 1012.4 |
| 20260903010025 | 92 | 53 | 5.0 | 8.0 | 0.00 | 0.00 | 0.00 | 48 | 1012.4 |
| 20260903005520 | 93 | 42 | 3.0 | 9.0 | 0.00 | 0.00 | 0.00 | 48 | 1012.3 |
| 20260903005016 | 93 | 73 | 4.0 | 14.0 | 0.00 | 0.00 | 0.00 | 49 | 1012.4 |
| 20260903004516 | 93 | 115 | 5.0 | 9.0 | 0.00 | 0.00 | 0.00 | 51 | 1012.4 |
| 20260903004011 | 93 | 95 | 5.0 | 7.0 | 0.00 | 0.00 | 0.00 | 52 | 1012.5 |
| 20260903003506 | 93 | 101 | 6.0 | 8.0 | 0.00 | 0.00 | 0.00 | 53 | 1012.4 |
| 20260903003001 | 93 | 109 | 4.0 | 8.0 | 0.00 | 0.00 | 0.00 | 51 | 1012.1 |
| 20260903002501 | 93 | 54 | 5.0 | 8.0 | 0.00 | 0.00 | 0.00 | 52 | 1012.1 |
| 20260903002001 | 93 | 27 | 5.0 | 6.0 | 0.00 | 0.00 | 0.00 | 52 | 1012.1 |
| 20260903001456 | 93 | 43 | 4.0 | 9.0 | 0.00 | 0.00 | 0.00 | 52 | 1012.2 |
| 20260903000950 | 93 | 55 | 7.0 | 9.0 | 0.00 | 0.00 | 0.00 | 52 | 1012.3 |
| 20260903000447 | 93 | 61 | 7.0 | 9.0 | 0.00 | 0.00 | 0.00 | 52 | 1012.3 |
| 20260902235943 | 93 | 46 | 4.0 | 10.0 | 0.00 | 0.00 | 0.00 | 52 | 1012.1 |
| 20260902235438 | 93 | 34 | 4.0 | 8.0 | 0.00 | 0.00 | 0.00 | 51 | 1011.9 |
| 20260902234932 | 93 | 46 | 4.0 | 7.0 | 0.00 | 0.00 | 0.00 | 51 | 1012.1 |
| 20260902234428 | 93 | 41 | 4.0 | 7.0 | 0.00 | 0.00 | 0.00 | 51 | 1012.1 |
| 20260902233927 | 93 | 54 | 2.0 | 9.0 | 0.00 | 0.00 | 0.00 | 51 | 1012.1 |
| 20260902233421 | 94 | 26 | 3.0 | 10.0 | 0.00 | 0.00 | 0.00 | 50 | 1012.1 |
| 20260902232920 | 93 | 28 | 1.0 | 3.0 | 0.00 | 0.00 | 0.00 | 50 | 1012.1 |
| 20260902232415 | 93 | 70 | 2.0 | 3.0 | 0.00 | 0.00 | 0.00 | 51 | 1011.8 |
| 20260902231915 | 93 | 79 | 3.0 | 11.0 | 0.00 | 0.00 | 0.00 | 53 | 1012.1 |
| 20260902231410 | 93 | 54 | 4.0 | 8.0 | 0.00 | 0.00 | 0.00 | 51 | 1012.2 |
| 20260902230904 | 92 | 84 | 5.0 | 21.0 | 0.00 | 0.00 | 0.00 | 49 | 1012.2 |
| 20260902230404 | 94 | 25 | 9.0 | 21.0 | 0.00 | 0.00 | 0.00 | 47 | 1011.8 |
| 20260902225858 | 95 | 69 | 11.0 | 24.0 | 0.00 | 0.00 | 0.00 | 48 | 1011.8 |
| 20260902225353 | 98 | 76 | 15.0 | 25.0 | 0.00 | 0.00 | 0.00 | 43 | 1011.9 |
| 20260902224852 | 98 | 32 | 4.0 | 10.0 | 0.00 | 0.00 | 0.00 | 42 | 1011.5 |
| 20260902224346 | 98 | 30 | 4.0 | 8.0 | 0.00 | 0.00 | 0.00 | 41 | 1011.5 |
| 20260902223843 | 99 | 61 | 6.0 | 11.0 | 0.00 | 0.00 | 0.00 | 40 | 1011.6 |
| 20260902223343 | 98 | 51 | 6.0 | 10.0 | 0.00 | 0.00 | 0.00 | 40 | 1011.4 |
| 20260902222837 | 97 | 15 | 7.0 | 8.0 | 0.00 | 0.00 | 0.00 | 42 | 1011.3 |
| 20260902222336 | 99 | 3 | 5.0 | 7.0 | 0.00 | 0.00 | 0.00 | 40 | 1011.9 |
| 20260902221831 | 97 | 348 | 4.0 | 10.0 | 0.00 | 0.00 | 0.00 | 42 | 1011.8 |
| 20260902221330 | 98 | 89 | 3.0 | 11.0 | 0.00 | 0.00 | 0.00 | 41 | 1011.9 |
| 20260902220826 | 98 | 23 | 8.0 | 11.0 | 0.00 | 0.00 | 0.00 | 41 | 1011.8 |
| 20260902220325 | 97 | 34 | 1.0 | 13.0 | 0.00 | 0.00 | 0.00 | 42 | 1011.8 |
| 20260902215820 | 98 | 64 | 5.0 | 11.0 | 0.00 | 0.00 | 0.00 | 42 | 1011.8 |
| 20260902215315 | 99 | 1 | 3.0 | 6.0 | 0.00 | 0.00 | 0.00 | 40 | 1012.0 |
| 20260902214811 | 98 | 48 | 3.0 | 9.0 | 0.00 | 0.00 | 0.00 | 40 | 1011.8 |
| 20260902214310 | 98 | 150 | 5.0 | 7.0 | 0.00 | 0.00 | 0.00 | 40 | 1012.0 |
| 20260902213806 | 98 | 47 | 4.0 | 11.0 | 0.00 | 0.00 | 0.00 | 41 | 1012.0 |
| 20260902213301 | 98 | 28 | 5.0 | 17.0 | 0.00 | 0.00 | 0.00 | 41 | 1012.2 |
| 20260902212759 | 98 | 25 | 3.0 | 5.0 | 0.00 | 0.00 | 0.00 | 40 | 1012.1 |
| 20260902212256 | 98 | 47 | 2.0 | 8.0 | 0.00 | 0.00 | 0.00 | 42 | 1012.1 |
| 20260902211752 | 98 | 39 | 8.0 | 14.0 | 0.00 | 0.00 | 0.00 | 40 | 1012.5 |
| 20260902211248 | 101 | 9 | 5.0 | 11.0 | 0.00 | 0.00 | 0.00 | 40 | 1012.2 |
| 20260902210748 | 99 | 27 | 3.0 | 7.0 | 0.00 | 0.00 | 0.00 | 40 | 1012.2 |
| 20260902210243 | 97 | 6 | 1.0 | 10.0 | 0.00 | 0.00 | 0.00 | 41 | 1012.3 |
| 20260902205741 | 97 | 46 | 3.0 | 8.0 | 0.00 | 0.00 | 0.00 | 41 | 1012.6 |
| 20260902205236 | 97 | 39 | 3.0 | 3.0 | 0.00 | 0.00 | 0.00 | 42 | 1012.5 |
| 20260902204731 | 98 | 36 | 7.0 | 13.0 | 0.00 | 0.00 | 0.00 | 42 | 1012.8 |
| 20260902204227 | 97 | 36 | 1.0 | 7.0 | 0.00 | 0.00 | 0.00 | 42 | 1012.6 |
| 20260902203721 | 97 | 11 | 5.0 | 8.0 | 0.00 | 0.00 | 0.00 | 42 | 1012.6 |
| 20260902203216 | 97 | 109 | 6.0 | 10.0 | 0.00 | 0.00 | 0.00 | 42 | 1012.7 |
| 20260902202710 | 98 | 352 | 5.0 | 7.0 | 0.00 | 0.00 | 0.00 | 42 | 1012.9 |
| 20260902202207 | 96 | 56 | 3.0 | 7.0 | 0.00 | 0.00 | 0.00 | 43 | 1013.0 |
| 20260902201703 | 97 | 38 | 10.0 | 14.0 | 0.00 | 0.00 | 0.00 | 41 | 1013.0 |
| 20260902201202 | 96 | 340 | 3.0 | 8.0 | 0.00 | 0.00 | 0.00 | 42 | 1012.9 |
| 20260902200657 | 97 | 44 | 5.0 | 10.0 | 0.00 | 0.00 | 0.00 | 41 | 1013.2 |
| 20260902200153 | 97 | 15 | 3.0 | 5.0 | 0.00 | 0.00 | 0.00 | 41 | 1013.4 |
| 20260902195648 | 96 | 29 | 4.0 | 11.0 | 0.00 | 0.00 | 0.00 | 42 | 1013.4 |
| 20260902195143 | 97 | 30 | 5.0 | 11.0 | 0.00 | 0.00 | 0.00 | 43 | 1013.6 |
| 20260902194641 | 96 | 4 | 1.0 | 11.0 | 0.00 | 0.00 | 0.00 | 44 | 1013.7 |
| 20260902194137 | 95 | 39 | 5.0 | 8.0 | 0.00 | 0.00 | 0.00 | 43 | 1013.5 |
| 20260902193633 | 95 | 29 | 5.0 | 9.0 | 0.00 | 0.00 | 0.00 | 44 | 1013.6 |
| 20260902193133 | 96 | 3 | 6.0 | 13.0 | 0.00 | 0.00 | 0.00 | 43 | 1013.7 |
| 20260902192631 | 95 | 45 | 4.0 | 7.0 | 0.00 | 0.00 | 0.00 | 44 | 1013.7 |
| 20260902192130 | 95 | 358 | 2.0 | 14.0 | 0.00 | 0.00 | 0.00 | 46 | 1014.1 |
| 20260902191625 | 96 | 11 | 6.0 | 9.0 | 0.00 | 0.00 | 0.00 | 45 | 1013.9 |
| 20260902191120 | 95 | 52 | 5.0 | 8.0 | 0.00 | 0.00 | 0.00 | 45 | 1014.2 |
| 20260902190615 | 94 | 19 | 6.0 | 8.0 | 0.00 | 0.00 | 0.00 | 46 | 1014.3 |
| 20260902190110 | 94 | 5 | 8.0 | 14.0 | 0.00 | 0.00 | 0.00 | 47 | 1014.5 |
| 20260902185606 | 95 | 31 | 6.0 | 9.0 | 0.00 | 0.00 | 0.00 | 45 | 1014.3 |
| 20260902185102 | 95 | 8 | 2.0 | 5.0 | 0.00 | 0.00 | 0.00 | 47 | 1014.7 |
| 20260902184557 | 93 | 349 | 1.0 | 6.0 | 0.00 | 0.00 | 0.00 | 48 | 1014.5 |
| 20260902184052 | 93 | 30 | 9.0 | 11.0 | 0.00 | 0.00 | 0.00 | 48 | 1014.4 |
| 20260902183548 | 93 | 33 | 5.0 | 9.0 | 0.00 | 0.00 | 0.00 | 48 | 1014.8 |
| 20260902183045 | 95 | 51 | 6.0 | 9.0 | 0.00 | 0.00 | 0.00 | 47 | 1014.9 |
| 20260902182540 | 94 | 20 | 7.0 | 9.0 | 0.00 | 0.00 | 0.00 | 48 | 1014.8 |
| 20260902182037 | 94 | 124 | 1.0 | 8.0 | 0.00 | 0.00 | 0.00 | 49 | 1014.9 |
| 20260902181532 | 93 | 27 | 3.0 | 11.0 | 0.00 | 0.00 | 0.00 | 49 | 1015.1 |
| 20260902181027 | 92 | 45 | 4.0 | 8.0 | 0.00 | 0.00 | 0.00 | 51 | 1015.0 |
| 20260902180526 | 93 | 28 | 1.0 | 7.0 | 0.00 | 0.00 | 0.00 | 52 | 1015.1 |
| 20260902180022 | 94 | 20 | 4.0 | 8.0 | 0.00 | 0.00 | 0.00 | 50 | 1015.5 |
| 20260902175522 | 93 | 19 | 2.0 | 6.0 | 0.00 | 0.00 | 0.00 | 52 | 1015.5 |
| 20260902175018 | 92 | 21 | 1.0 | 10.0 | 0.00 | 0.00 | 0.00 | 54 | 1015.9 |
| 20260902174515 | 92 | 15 | 4.0 | 10.0 | 0.00 | 0.00 | 0.00 | 53 | 1015.6 |
| 20260902174010 | 92 | 36 | 2.0 | 3.0 | 0.00 | 0.00 | 0.00 | 53 | 1015.9 |
| 20260902173510 | 91 | 16 | 3.0 | 5.0 | 0.00 | 0.00 | 0.00 | 54 | 1016.0 |
| 20260902173005 | 92 | 86 | 5.0 | 7.0 | 0.00 | 0.00 | 0.00 | 52 | 1015.9 |
| 20260902172504 | 92 | 63 | 5.0 | 7.0 | 0.00 | 0.00 | 0.00 | 53 | 1016.0 |
| 20260902171959 | 93 | 84 | 4.0 | 7.0 | 0.00 | 0.00 | 0.00 | 52 | 1016.1 |
| 20260902171455 | 93 | 49 | 5.0 | 8.0 | 0.00 | 0.00 | 0.00 | 52 | 1015.9 |
| 20260902170950 | 91 | 34 | 1.0 | 3.0 | 0.00 | 0.00 | 0.00 | 52 | 1016.1 |
| 20260902170450 | 91 | 69 | 8.0 | 10.0 | 0.00 | 0.00 | 0.00 | 54 | 1016.5 |
| 20260902165946 | 91 | 4 | 3.0 | 8.0 | 0.00 | 0.00 | 0.00 | 54 | 1016.6 |
| 20260902165445 | 90 | 28 | 4.0 | 7.0 | 0.00 | 0.00 | 0.00 | 55 | 1016.6 |
| 20260902164941 | 92 | 44 | 3.0 | 6.0 | 0.00 | 0.00 | 0.00 | 53 | 1016.4 |
| 20260902164436 | 91 | 66 | 1.0 | 6.0 | 0.00 | 0.00 | 0.00 | 55 | 1016.6 |
| 20260902163935 | 92 | 30 | 2.0 | 8.0 | 0.00 | 0.00 | 0.00 | 55 | 1016.7 |
| 20260902163430 | 91 | 33 | 2.0 | 5.0 | 0.00 | 0.00 | 0.00 | 55 | 1016.7 |
| 20260902162928 | 90 | 294 | 2.0 | 2.0 | 0.00 | 0.00 | 0.00 | 58 | 1016.6 |
| 20260902162424 | 90 | 36 | 2.0 | 5.0 | 0.00 | 0.00 | 0.00 | 58 | 1016.7 |
| 20260902161923 | 90 | 15 | 1.0 | 2.0 | 0.00 | 0.00 | 0.00 | 57 | 1016.8 |
| 20260902161418 | 90 | 60 | 4.0 | 6.0 | 0.00 | 0.00 | 0.00 | 57 | 1016.7 |
| 20260902160914 | 89 | 26 | 4.0 | 6.0 | 0.00 | 0.00 | 0.00 | 59 | 1016.5 |
| 20260902160409 | 91 | 63 | 5.0 | 9.0 | 0.00 | 0.00 | 0.00 | 60 | 1016.8 |
| 20260902155907 | 89 | 346 | 1.0 | 2.0 | 0.00 | 0.00 | 0.00 | 60 | 1016.8 |
| 20260902155402 | 87 | 35 | 1.0 | 3.0 | 0.00 | 0.00 | 0.00 | 61 | 1017.0 |
| 20260902154856 | 88 | 28 | 1.0 | 9.0 | 0.00 | 0.00 | 0.00 | 62 | 1016.8 |
| 20260902154352 | 88 | 28 | 2.0 | 3.0 | 0.00 | 0.00 | 0.00 | 62 | 1017.0 |
| 20260902153851 | 88 | 41 | 1.0 | 6.0 | 0.00 | 0.00 | 0.00 | 62 | 1016.9 |
| 20260902153350 | 88 | 12 | 3.0 | 7.0 | 0.00 | 0.00 | 0.00 | 63 | 1016.9 |
| 20260902152846 | 87 | 359 | 0.0 | 1.0 | 0.00 | 0.00 | 0.00 | 63 | 1016.8 |
| 20260902152342 | 87 | 158 | 4.0 | 6.0 | 0.00 | 0.00 | 0.00 | 64 | 1017.1 |
| 20260902151837 | 86 | 38 | 0.0 | 3.0 | 0.00 | 0.00 | 0.00 | 66 | 1016.8 |
| 20260902151332 | 88 | 39 | 2.0 | 6.0 | 0.00 | 0.00 | 0.00 | 62 | 1016.8 |
| 20260902150827 | 87 | 32 | 1.0 | 3.0 | 0.00 | 0.00 | 0.00 | 65 | 1016.9 |
| 20260902150324 | 87 | 358 | 1.0 | 2.0 | 0.00 | 0.00 | 0.00 | 64 | 1016.8 |
| 20260902145823 | 86 | 110 | 4.0 | 5.0 | 0.00 | 0.00 | 0.00 | 66 | 1016.8 |
| 20260902145318 | 86 | 312 | 2.0 | 5.0 | 0.00 | 0.00 | 0.00 | 67 | 1017.0 |
| 20260902144814 | 86 | 342 | 1.0 | 5.0 | 0.00 | 0.00 | 0.00 | 68 | 1016.8 |
| 20260902144310 | 85 | 16 | 1.0 | 1.0 | 0.00 | 0.00 | 0.00 | 67 | 1016.7 |
| 20260902143804 | 84 | 100 | 3.0 | 5.0 | 0.00 | 0.00 | 0.00 | 69 | 1016.5 |
| 20260902143259 | 85 | 135 | 5.0 | 6.0 | 0.00 | 0.00 | 0.00 | 68 | 1016.7 |
| 20260902142756 | 85 | 165 | 5.0 | 6.0 | 0.00 | 0.00 | 0.00 | 69 | 1016.6 |
| 20260902142251 | 86 | 20 | 1.0 | 2.0 | 0.00 | 0.00 | 0.00 | 67 | 1016.7 |
| 20260902141750 | 84 | 53 | 3.0 | 3.0 | 0.00 | 0.00 | 0.00 | 69 | 1016.5 |
| 20260902141246 | 85 | 93 | 5.0 | 6.0 | 0.00 | 0.00 | 0.00 | 67 | 1016.7 |
| 20260902140741 | 84 | 137 | 4.0 | 7.0 | 0.00 | 0.00 | 0.00 | 68 | 1016.8 |
| 20260902140236 | 85 | 3 | 1.0 | 5.0 | 0.00 | 0.00 | 0.00 | 67 | 1016.7 |
| 20260902135735 | 84 | 89 | 3.0 | 6.0 | 0.00 | 0.00 | 0.00 | 67 | 1016.9 |
| 20260902135231 | 84 | 149 | 6.0 | 7.0 | 0.00 | 0.00 | 0.00 | 67 | 1016.6 |
| 20260902134730 | 84 | 51 | 3.0 | 3.0 | 0.00 | 0.00 | 0.00 | 68 | 1016.6 |
| 20260902134226 | 84 | 61 | 3.0 | 5.0 | 0.00 | 0.00 | 0.00 | 68 | 1016.6 |
| 20260902133721 | 83 | 25 | 0.0 | 3.0 | 0.00 | 0.00 | 0.00 | 69 | 1016.6 |
| 20260902133220 | 83 | 95 | 3.0 | 7.0 | 0.00 | 0.00 | 0.00 | 69 | 1016.7 |
| 20260902132715 | 82 | 33 | 1.0 | 6.0 | 0.00 | 0.00 | 0.00 | 70 | 1016.7 |
| 20260902132211 | 82 | 87 | 5.0 | 6.0 | 0.00 | 0.00 | 0.00 | 69 | 1016.5 |
| 20260902131706 | 82 | 129 | 3.0 | 6.0 | 0.00 | 0.00 | 0.00 | 70 | 1016.5 |
| 20260902131203 | 82 | 145 | 3.0 | 9.0 | 0.00 | 0.00 | 0.00 | 70 | 1016.6 |
| 20260902130657 | 82 | 107 | 6.0 | 9.0 | 0.00 | 0.00 | 0.00 | 71 | 1016.6 |
| 20260902130153 | 81 | 34 | 1.0 | 6.0 | 0.00 | 0.00 | 0.00 | 72 | 1016.7 |
| 20260902125648 | 81 | 90 | 5.0 | 9.0 | 0.00 | 0.00 | 0.00 | 72 | 1016.5 |
| 20260902125144 | 81 | 61 | 7.0 | 10.0 | 0.00 | 0.00 | 0.00 | 72 | 1016.5 |
| 20260902124641 | 81 | 74 | 5.0 | 9.0 | 0.00 | 0.00 | 0.00 | 72 | 1016.2 |
| 20260902124140 | 81 | 53 | 3.0 | 7.0 | 0.00 | 0.00 | 0.00 | 72 | 1016.2 |
| 20260902123636 | 81 | 88 | 3.0 | 3.0 | 0.00 | 0.00 | 0.00 | 71 | 1016.1 |
| 20260902123137 | 81 | 59 | 3.0 | 5.0 | 0.00 | 0.00 | 0.00 | 71 | 1016.1 |
| 20260902122631 | 81 | 68 | 3.0 | 5.0 | 0.00 | 0.00 | 0.00 | 72 | 1016.1 |
| 20260902122126 | 81 | 62 | 2.0 | 3.0 | 0.00 | 0.00 | 0.00 | 72 | 1016.0 |
| 20260902121621 | 80 | 55 | 3.0 | 3.0 | 0.00 | 0.00 | 0.00 | 73 | 1015.9 |
| 20260902121115 | 80 | 25 | 0.0 | 5.0 | 0.00 | 0.00 | 0.00 | 73 | 1016.1 |
| 20260902120612 | 80 | 91 | 4.0 | 5.0 | 0.00 | 0.00 | 0.00 | 73 | 1016.1 |
| 20260902120108 | 80 | 70 | 3.0 | 6.0 | 0.00 | 0.00 | 0.00 | 73 | 1016.1 |
| 20260902115603 | 80 | 114 | 3.0 | 5.0 | 0.00 | 0.00 | 0.00 | 73 | 1015.9 |
| 20260902115059 | 80 | 88 | 4.0 | 5.0 | 0.00 | 0.00 | 0.00 | 73 | 1016.1 |
| 20260902114555 | 81 | 31 | 2.0 | 5.0 | 0.00 | 0.00 | 0.00 | 73 | 1015.9 |
| 20260902114054 | 81 | 75 | 3.0 | 3.0 | 0.00 | 0.00 | 0.00 | 73 | 1016.3 |
| 20260902113550 | 81 | 75 | 5.0 | 6.0 | 0.00 | 0.00 | 0.00 | 72 | 1016.2 |
| 20260902113045 | 81 | 60 | 2.0 | 6.0 | 0.00 | 0.00 | 0.00 | 72 | 1016.3 |
| 20260902112540 | 81 | 51 | 1.0 | 3.0 | 0.00 | 0.00 | 0.00 | 71 | 1016.1 |
| 20260902112037 | 81 | 70 | 2.0 | 3.0 | 0.00 | 0.00 | 0.00 | 71 | 1016.0 |
| 20260902111533 | 81 | 63 | 3.0 | 5.0 | 0.00 | 0.00 | 0.00 | 71 | 1016.1 |
| 20260902111028 | 81 | 50 | 2.0 | 5.0 | 0.00 | 0.00 | 0.00 | 70 | 1016.2 |
| 20260902110525 | 81 | 33 | 0.0 | 2.0 | 0.00 | 0.00 | 0.00 | 70 | 1016.4 |
| 20260902110020 | 82 | 33 | 1.0 | 2.0 | 0.00 | 0.00 | 0.00 | 70 | 1016.5 |
| 20260902105520 | 82 | 24 | 1.0 | 2.0 | 0.00 | 0.00 | 0.00 | 69 | 1016.0 |
| 20260902105014 | 82 | 35 | 2.0 | 2.0 | 0.00 | 0.00 | 0.00 | 69 | 1015.9 |
| 20260902104509 | 82 | 36 | 1.0 | 3.0 | 0.00 | 0.00 | 0.00 | 69 | 1016.1 |
| 20260902104004 | 82 | 25 | 1.0 | 2.0 | 0.00 | 0.00 | 0.00 | 69 | 1016.2 |
| 20260902103459 | 82 | 30 | 1.0 | 2.0 | 0.00 | 0.00 | 0.00 | 69 | 1016.1 |
| 20260902102954 | 82 | 25 | 1.0 | 3.0 | 0.00 | 0.00 | 0.00 | 69 | 1015.9 |
| 20260902102451 | 82 | 354 | 0.0 | 5.0 | 0.00 | 0.00 | 0.00 | 69 | 1016.1 |
| 20260902101947 | 82 | 87 | 3.0 | 6.0 | 0.00 | 0.00 | 0.00 | 68 | 1016.1 |
| 20260902101442 | 82 | 326 | 2.0 | 2.0 | 0.00 | 0.00 | 0.00 | 68 | 1016.0 |
| 20260902100941 | 82 | 122 | 3.0 | 5.0 | 0.00 | 0.00 | 0.00 | 68 | 1015.9 |
| 20260902100436 | 82 | 22 | 1.0 | 3.0 | 0.00 | 0.00 | 0.00 | 68 | 1015.9 |
| 20260902095936 | 83 | 100 | 3.0 | 3.0 | 0.00 | 0.00 | 0.00 | 68 | 1016.1 |
| 20260902095431 | 83 | 100 | 2.0 | 3.0 | 0.00 | 0.00 | 0.00 | 67 | 1016.1 |
| 20260902094930 | 83 | 21 | 1.0 | 2.0 | 0.00 | 0.00 | 0.00 | 68 | 1015.9 |
| 20260902094426 | 83 | 300 | 1.0 | 2.0 | 0.00 | 0.00 | 0.00 | 68 | 1016.0 |
| 20260902093921 | 83 | 178 | 2.0 | 3.0 | 0.00 | 0.00 | 0.00 | 67 | 1016.1 |
| 20260902093416 | 83 | 315 | 1.0 | 2.0 | 0.00 | 0.00 | 0.00 | 67 | 1015.8 |
| 20260902092914 | 83 | 232 | 2.0 | 2.0 | 0.00 | 0.00 | 0.00 | 67 | 1016.1 |
| 20260902092410 | 83 | 45 | 1.0 | 3.0 | 0.00 | 0.00 | 0.00 | 67 | 1016.0 |
| 20260902091905 | 83 | 84 | 2.0 | 3.0 | 0.00 | 0.00 | 0.00 | 67 | 1016.0 |
| 20260902091400 | 83 | 143 | 3.0 | 3.0 | 0.00 | 0.00 | 0.00 | 67 | 1016.0 |
| 20260902090857 | 83 | 7 | 0.0 | 1.0 | 0.00 | 0.00 | 0.00 | 67 | 1015.8 |
| 20260902090357 | 83 | 49 | 1.0 | 2.0 | 0.00 | 0.00 | 0.00 | 67 | 1016.0 |
| 20260902085855 | 83 | 65 | 2.0 | 2.0 | 0.00 | 0.00 | 0.00 | 68 | 1015.7 |
| 20260902085351 | 83 | 159 | 2.0 | 2.0 | 0.00 | 0.00 | 0.00 | 67 | 1015.9 |
| 20260902084846 | 83 | 242 | 3.0 | 3.0 | 0.00 | 0.00 | 0.00 | 67 | 1015.7 |
| 20260902084343 | 83 | 127 | 3.0 | 3.0 | 0.00 | 0.00 | 0.00 | 67 | 1015.7 |
| 20260902083838 | 83 | 325 | 1.0 | 2.0 | 0.00 | 0.00 | 0.00 | 67 | 1015.8 |
| 20260902083337 | 84 | 16 | 1.0 | 1.0 | 0.00 | 0.00 | 0.00 | 66 | 1015.8 |
| 20260902082833 | 84 | 40 | 2.0 | 3.0 | 0.00 | 0.00 | 0.00 | 66 | 1015.8 |
| 20260902082329 | 84 | 157 | 5.0 | 6.0 | 0.00 | 0.00 | 0.00 | 67 | 1015.8 |
| 20260902081825 | 83 | 137 | 3.0 | 7.0 | 0.00 | 0.00 | 0.00 | 67 | 1015.7 |
| 20260902081320 | 83 | 196 | 4.0 | 6.0 | 0.00 | 0.00 | 0.00 | 67 | 1015.8 |
| 20260902080815 | 84 | 232 | 2.0 | 5.0 | 0.00 | 0.00 | 0.00 | 67 | 1015.7 |
| 20260902080312 | 84 | 340 | 1.0 | 3.0 | 0.00 | 0.00 | 0.00 | 67 | 1015.8 |
| 20260902075811 | 84 | 7 | 0.0 | 2.0 | 0.00 | 0.00 | 0.00 | 67 | 1015.7 |
| 20260902075307 | 84 | 222 | 2.0 | 3.0 | 0.00 | 0.00 | 0.00 | 67 | 1015.9 |
| 20260902074802 | 84 | 168 | 1.0 | 3.0 | 0.00 | 0.00 | 0.00 | 67 | 1016.0 |
| 20260902074258 | 84 | 29 | 2.0 | 5.0 | 0.00 | 0.00 | 0.00 | 67 | 1015.8 |
| 20260902073752 | 84 | 33 | 1.0 | 3.0 | 0.00 | 0.00 | 0.00 | 68 | 1015.8 |
| 20260902073249 | 84 | 233 | 2.0 | 5.0 | 0.00 | 0.00 | 0.00 | 68 | 1016.0 |
| 20260902072744 | 84 | 172 | 2.0 | 7.0 | 0.00 | 0.00 | 0.00 | 69 | 1015.9 |
| 20260902072240 | 84 | 132 | 1.0 | 6.0 | 0.00 | 0.00 | 0.00 | 68 | 1015.5 |
| 20260902071736 | 84 | 102 | 3.0 | 6.0 | 0.00 | 0.00 | 0.00 | 68 | 1015.8 |
| 20260902071231 | 84 | 324 | 2.0 | 5.0 | 0.00 | 0.00 | 0.00 | 68 | 1015.8 |
| 20260902070728 | 84 | 50 | 3.0 | 3.0 | 0.00 | 0.00 | 0.00 | 68 | 1015.9 |
| 20260902070227 | 84 | 124 | 5.0 | 8.0 | 0.00 | 0.00 | 0.00 | 68 | 1016.0 |
| 20260902065726 | 84 | 115 | 5.0 | 7.0 | 0.00 | 0.00 | 0.00 | 68 | 1015.8 |
| 20260902065221 | 84 | 73 | 3.0 | 7.0 | 0.00 | 0.00 | 0.00 | 68 | 1015.8 |
| 20260902064717 | 84 | 142 | 3.0 | 8.0 | 0.00 | 0.00 | 0.00 | 68 | 1015.8 |
| 20260902064212 | 85 | 82 | 4.0 | 7.0 | 0.00 | 0.00 | 0.00 | 67 | 1015.9 |
| 20260902063708 | 85 | 32 | 2.0 | 7.0 | 0.00 | 0.00 | 0.00 | 67 | 1015.9 |
| 20260902063202 | 85 | 87 | 2.0 | 7.0 | 0.00 | 0.00 | 0.00 | 67 | 1015.7 |
| 20260902062702 | 85 | 142 | 3.0 | 8.0 | 0.00 | 0.00 | 0.00 | 67 | 1015.9 |